• Join FlightAware (Why Join?)
  • Login
  • US Flag 
04:52AM EDT


 

Airport Tracker/Info


-or-


 

Live Flight TrackerFlight Track Log ✈ SWA127 ✈ 19-Apr-2013 ✈ KHOU - KHRL

Flight Track Log - Related Links

Times and Time Zones

All times are in EDT time to prevent confusion due to time zone crossing. See the SWA127 flight status page for this flight to view local times or setup timezone preferences in your user account.

Time Position Orientation Groundspeed Altitude Reporting Facility
EDT Latitude Longitude Course Direction KTS MPH feet Rate Location/Type
11:42AM 29.6519 -95.2872 47° Northeast 147 169 800  Level Houston Center
11:43AM 29.6714 -95.2631 47° Northeast 230 265 2,700 2,280 Climbing Houston Center
11:44AM 29.6153 -95.2233 148° Southeast 268 308 5,300 3,180 Climbing Houston Center
11:45AM 29.5242 -95.2214 179° South 280 322 9,400 3,540 Climbing Houston Center
11:46AM 29.4494 -95.2297 186° South 271 312 12,700 3,180 Climbing Houston Center
11:47AM 29.3836 -95.2656 205° Southwest 263 303 16,000 2,700 Climbing Houston Center
11:48AM 29.3172 -95.3014 205° Southwest 263 303 18,300 1,980 Climbing Houston Center
11:49AM 29.2497 -95.3372 205° Southwest 267 307 20,200 1,740 Climbing Houston Center
11:50AM 29.1656 -95.3994 213° Southwest 300 345 21,900 1,380 Climbing Houston Center
11:51AM 29.0975 -95.4661 221° Southwest 319 367 23,100 960 Climbing Houston Center
11:52AM 29.0203 -95.5386 219° Southwest 358 412 24,000 1,380 Climbing Houston Center
11:53AM 28.9408 -95.6153 220° Southwest 372 428 26,000 1,740 Climbing Houston Center
11:54AM 28.8606 -95.6906 219° Southwest 371 427 27,600 1,860 Climbing Houston Center
11:55AM 28.7811 -95.7642 219° Southwest 369 425 29,900 1,980 Climbing Houston Center
11:56AM 28.6911 -95.8500 220° Southwest 357 411 31,700 1,500 Climbing Houston Center
11:57AM 28.6169 -95.9203 220° Southwest 349 402 33,100 1,080 Climbing Houston Center
11:58AM 28.5450 -95.9878 220° Southwest 347 399 34,000 1,140 Climbing Houston Center
11:59AM 28.4711 -96.0564 219° Southwest 344 396 35,500 960 Climbing Houston Center
12:00PM 28.4008 -96.1233 220° Southwest 332 382 36,000 240 Climbing Houston Center
12:01PM 28.3147 -96.2028 219° Southwest 330 380 36,000  Level Houston Center
12:02PM 28.2431 -96.2697 219° Southwest 332 382 36,000  Level Houston Center
12:03PM 28.1708 -96.3375 220° Southwest 337 388 36,000  Level Houston Center
12:04PM 28.0983 -96.4033 219° Southwest 334 384 36,000  Level Houston Center
12:05PM 28.0250 -96.4722 220° Southwest 339 390 36,000 -480 Level Houston Center
12:07PM 27.9522 -96.5392 219° Southwest 339 390 35,100 -1,020 Descending Houston Center
12:08PM 27.8642 -96.6211 219° Southwest 340 391 34,000 -1,020 Descending Houston Center
12:09PM 27.7886 -96.6894 219° Southwest 346 398 33,000 -1,020 Descending Houston Center
12:10PM 27.7139 -96.7589 219° Southwest 347 399 32,000 -960 Descending Houston Center
12:11PM 27.6386 -96.8267 219° Southwest 346 398 31,100 -960 Descending Houston Center
12:12PM 27.5636 -96.8967 220° Southwest 348 400 30,100 -960 Descending Houston Center
12:13PM 27.4867 -96.9664 219° Southwest 353 406 29,200 -1,080 Descending Houston Center
12:14PM 27.4039 -97.0417 219° Southwest 362 417 27,900 -1,380 Descending Houston Center
12:16PM 27.2400 -97.1911 219° Southwest 345 397 25,000 -1,680 Descending Houston Center
12:17PM 27.1569 -97.2497 212° Southwest 351 404 22,700 -2,160 Descending Houston Center
12:18PM 27.0753 -97.2975 208° Southwest 336 387 20,600 -2,040 Descending Houston Center
12:19PM 26.9942 -97.3453 208° Southwest 330 380 18,500 -2,160 Descending Houston Center
12:20PM 26.9192 -97.3864 206° Southwest 336 387 16,900 -2,460 Descending Houston Center
12:20PM 26.8911 -97.3889 185° South 336 387 16,000 -2,520 Descending Houston Center
12:21PM 26.8311 -97.3889 180° South 341 392 14,600 -2,340 Descending Houston Center
12:21PM 26.7950 -97.3875 178° South 344 396 13,600 -1,980 Descending Houston Center
12:22PM 26.7300 -97.3886 181° South 340 391 12,400 -1,560 Descending Houston Center
12:22PM 26.6975 -97.3886 180° South 325 374 12,000 -1,140 Descending Houston Center
12:23PM 26.6458 -97.3886 180° South 301 346 11,300 -1,200 Descending Houston Center
12:23PM 26.6178 -97.3900 183° South 291 335 10,800 -1,860 Descending Houston Center
12:24PM 26.5767 -97.3933 184° South 276 318 9,600 -1,680 Descending Houston Center
12:24PM 26.5350 -97.3950 182° South 277 319 9,100 -1,020 Descending Houston Center
12:25PM 26.4847 -97.3989 184° South 282 325 8,500 -900 Descending Houston Center
12:25PM 26.4531 -97.3994 181° South 291 335 8,200 -900 Descending Houston Center
12:26PM 26.3989 -97.4036 184° South 298 343 7,600 -1,380 Descending Houston Center
12:26PM 26.3669 -97.4250 211° Southwest 299 344 6,800 -1,800 Descending Houston Center
12:27PM 26.3264 -97.4508 210° Southwest 302 348 5,800 -1,860 Descending Houston Center
12:27PM 26.2944 -97.4744 214° Southwest 304 350 4,900 -1,800 Descending Houston Center
12:28PM 26.2600 -97.4994 213° Southwest 306 352 4,200 -1,560 Descending Houston Center
12:28PM 26.2242 -97.5294 217° Southwest 307 353 3,300 -900 Descending Houston Center
12:29PM 26.1925 -97.5553 216° Southwest 300 345 3,300 -120 Level Houston Center
12:29PM 26.1586 -97.5817 215° Southwest 269 310 3,200 -240 Descending Houston Center
12:30PM 26.1453 -97.6036 236° Southwest 229 264 3,100 -780 Descending Houston Center
12:30PM 26.1431 -97.6342 265° West 183 211 2,400 -1,080 Descending Houston Center
12:31PM 26.1467 -97.6547 281° West 159 183 1,900 -1,200 Descending Houston Center
12:31PM 26.1675 -97.6592 349° North 135 155 1,200 -1,140 Descending Houston Center
12:32PM 26.1831 -97.6614 353° North 123 142 800 -900 Descending Houston Center
12:32PM 26.2014 -97.6594 North 124 143 300 -900 Descending Houston Center